This is the latest recevied weather packets stored in our database for station/object KI7JYE. If no packets are shown the sender has not sent any weather packets the latest 10 day(s).
| Time | Temp. | Humidity | Pressure | Rain* | Wind** | Luminosity | Snow |
|---|---|---|---|---|---|---|---|
| 1777689811 | 17.22° C | 72% | 1013.7 hPa | 0 mm | - | 19 W/m² | - |
| 1777689509 | 17.22° C | 71% | 1013.6 hPa | 0 mm | - | 23 W/m² | - |
| 1777689207 | 17.22° C | 70% | 1013.7 hPa | 0 mm | - | 28 W/m² | - |
| 1777688904 | 17.78° C | 70% | 1013.4 hPa | 0 mm | - | 32 W/m² | - |
| 1777688600 | 17.78° C | 69% | 1013.4 hPa | 0 mm | - | 36 W/m² | - |
| 1777688297 | 18.33° C | 68% | 1013.5 hPa | 0 mm | - | 42 W/m² | - |
| 1777687995 | 18.89° C | 67% | 1013.7 hPa | 0 mm | - | 45 W/m² | - |
| 1777687692 | 18.89° C | 66% | 1013.2 hPa | 0 mm | - | 50 W/m² | - |
| 1777687389 | 19.44° C | 65% | 1013.3 hPa | 0 mm | - | 54 W/m² | - |
| 1777687086 | 19.44° C | 64% | 1013.4 hPa | 0 mm | - | 58 W/m² | - |
| 1777686783 | 20° C | 63% | 1013.1 hPa | 0 mm | - | 68 W/m² | - |
| 1777686481 | 20° C | 62% | 1013.3 hPa | 0 mm | - | 71 W/m² | - |
| 1777686177 | 20.56° C | 62% | 1013.1 hPa | 0 mm | - | 75 W/m² | - |
| 1777685873 | 20.56° C | 61% | 1013.2 hPa | 0 mm | - | 107 W/m² | - |
| 1777685569 | 20.56° C | 60% | 1013.2 hPa | 0 mm | - | 125 W/m² | - |
| 1777685266 | 20.56° C | 61% | 1013.2 hPa | 0 mm | - | 114 W/m² | - |
| 1777684964 | 21.11° C | 60% | 1013.1 hPa | 0 mm | - | 110 W/m² | - |
| 1777684661 | 21.67° C | 59% | 1013.2 hPa | 0 mm | - | 117 W/m² | - |
| 1777684356 | 22.22° C | 58% | 1013 hPa | 0 mm | - | 137 W/m² | - |
| 1777684055 | 21.67° C | 57% | 1013 hPa | 0 mm | - | 153 W/m² | - |
| 1777683750 | 22.78° C | 54% | 1013.1 hPa | 0 mm | - | 169 W/m² | - |
| 1777683448 | 22.78° C | 54% | 1013 hPa | 0 mm | - | 171 W/m² | - |
| 1777683146 | 22.78° C | 55% | 1013 hPa | 0 mm | - | 174 W/m² | - |
| 1777682842 | 22.78° C | 56% | 1013 hPa | 0 mm | - | 200 W/m² | - |
| 1777682538 | 22.78° C | 55% | 1013 hPa | 0 mm | - | 172 W/m² | - |
* Rain latest hour (hover to see other rain measurements)
** Current wind speed in m/s (hover to see current wind gust speed)